Vertical_Velocity
-1 -0 0 1 -1 -1 -2 -0 -3 -2 -3 -3 -2 1 0 -2 -1 1 0 -1 -2 -1 -1 -2 1 0 -1 -1 -1 -2 -2 -1 -1 -1 -2 -0 -1 -2 -1 0 -2 -2 1 -3 -4
-1 -1 -1 -0 -0 -0 -2 -2 -3 -1 0 -3 1 4 -1 1 -4 -3 2 2 1 -1 0 -1 0 1 -1 0 -1 -1 -3 -2 -2 -0 1 0 -0 0 3 -1 -1 1 1 -2 -2
-1 -0 0 -1 1 1 -2 -2 -0 -1 -0 -1 -0 3 -4 0 -3 2 -5 -5 -4 -4 -3 1 1 0 -1 -1 -1 0 -0 -2 -2 -2 -1 -2 -3 -2 -3 1 -1 0 2 5 1
-1 -2 -0 -1 -2 -1 0 -1 -1 -0 -0 -2 -3 1 -2 -2 -2 -3 -3 -3 -3 -4 -4 -7 -5 1 -0 -1 -0 -3 -2 -1 -1 -0 0 1 0 -1 -2 -2 -2 -2 1 1 3
-1 -1 -2 -3 -2 -1 -0 -2 -2 -2 -0 -1 -1 -2 -1 -1 -2 4 -1 -6 1 -2 1 -2 -1 -4 -2 -1 -0 0 -1 -2 -1 -1 -2 -0 -1 1 -1 -2 -2 -2 -4 -1 1
-2 -1 -1 -2 -2 -1 -1 -1 -1 -2 -3 -2 -1 -2 -2 -1 -2 -5 -5 -1 2 -1 -1 -0 5 6 1 2 1 2 1 1 -0 -0 -1 -2 -1 -1 0 1 1 -1 -2 -2 -3
-3 -1 -1 0 -4 -3 -1 -1 -2 -1 -2 -1 -4 -3 -2 -2 -2 -0 -4 -3 -2 -3 -1 -5 -7 -10 -3 -2 2 1 -1 2 2 -0 -0 -2 -1 -2 -2 -1 1 2 2 -1 -1
-1 -2 -1 -2 -3 -3 -1 -1 -0 -1 -3 -2 0 -4 0 -2 -3 -3 -2 -3 -3 1 0 -1 -1 3 -5 -2 -4 -3 -1 -2 -2 -0 1 -0 2 2 -1 -3 -1 -2 -1 0 1
-2 -2 -2 -0 -2 -3 -2 -2 -2 -0 1 -1 1 -1 -3 -1 -2 -3 -4 -1 -0 -3 -4 2 -2 -1 -4 2 -3 -4 -4 -2 -2 -1 -1 -1 1 8 3 1 1 -1 -2 -4 -4
-1 -2 -2 -1 -1 -2 -2 -1 -0 -1 -1 0 1 -0 -1 -3 -1 -1 -3 -1 -1 -3 -2 -2 -1 1 1 0 -1 -0 -2 -2 -4 -7 -1 2 -8 1 -0 -0 2 0 -3 -2 -2
-1 -1 -3 -5 1 1 -1 -4 -2 -2 -1 -4 -1 1 0 -4 -3 1 0 -3 -4 -2 -3 -0 -2 -2 -4 1 -1 -1 -2 -4 -1 -2 -6 -4 -6 -3 -1 1 1 -1 -2 -3 -2
-2 -2 -4 -3 -3 -2 -1 -2 -2 -2 -3 0 -0 -1 2 1 -4 -1 2 1 -0 -0 -1 -2 -2 -1 -1 -2 2 -1 -0 -0 -2 -1 -4 -1 -3 -4 -0 -2 0 -4 -6 -2 -1
-0 -2 -3 -4 -2 -2 -3 -1 -1 -1 -2 -1 0 1 0 3 -1 -1 -2 2 2 1 -1 1 0 0 -3 -0 -3 0 2 -1 0 -3 -2 -6 -2 -2 -1 -2 -1 -1 1 1 2
-3 -1 -2 -4 -3 -3 -1 0 -2 0 -2 -2 -4 -3 -3 0 0 -2 -0 -0 2 -1 1 -1 -1 0 -3 -0 -0 -3 -1 0 2 -1 -2 2 -10 -1 0 -2 -2 -0 3 1 1
-1 -4 -1 -1 -4 -2 -2 -4 -1 -1 -6 -1 -1 -1 -3 -0 1 -3 -4 -6 -6 -5 -1 -2 -1 -1 -2 -3 -2 0 1 -3 -1 3 -0 -2 1 -1 0 -1 -2 -3 -1 2 -0
-2 -1 -2 -4 -0 -1 -2 -1 -3 -1 -5 -3 -0 1 1 1 2 2 -2 -6 -3 -2 -0 -0 -1 -0 -1 1 -1 -2 -2 1 0 -2 -0 2 2 -7 -1 2 1 1 2 2 0
-1 -5 -3 -2 -3 -2 -1 -3 -2 -2 -3 -1 -1 -3 -3 -1 1 -2 -4 -3 -5 -6 -2 -2 -1 -1 -2 -1 0 -1 -3 -3 -6 -3 -5 -1 4 -15 6 -1 4 4 2 1 0
-0 -3 -3 -5 -3 -2 -2 -2 0 -0 -1 -2 -1 1 1 -1 -1 3 -3 -2 -1 -2 -5 -2 -4 -0 2 0 2 -0 -1 -3 -3 -2 -4 4 -5 -2 1 1 1 1 -1 -1 -1
-0 -2 -1 -3 -3 -3 -0 -4 -1 -1 -2 -1 -3 -2 -3 -2 -4 -1 2 2 0 -2 -1 -1 -3 -0 -3 -3 -2 0 0 1 1 2 0 -1 -3 -2 1 4 2 3 4 0 -4
-2 -3 -3 -1 -1 -6 -1 -1 -0 -1 -1 -1 -2 -1 0 -4 0 -1 -2 0 1 2 3 2 -5 -2 3 3 0 -1 2 0 -0 -3 -1 -3 -4 -10 1 3 1 -1 -1 -4 -2
-1 -0 -1 -4 -3 -3 -3 -2 2 1 -1 -5 1 -1 -4 -0 -4 -3 1 -1 -1 -1 1 4 5 0 -1 1 2 2 -0 -1 0 0 -2 -1 -12 4 4 -3 -2 -1 -3 -5 -1
-2 -2 -3 -1 -5 -1 -1 -5 -3 -1 -5 2 -3 2 -1 -0 -3 -1 -1 -0 2 2 -3 -2 3 -3 -2 8 1 -0 1 5 5 -1 1 4 -28 4 1 -6 4 2 0 -4 -1
-4 -1 -1 -1 -2 -1 0 -1 -4 1 -2 -3 -3 5 1 0 -2 1 0 0 -2 -3 3 -5 6 -4 -6 2 0 1 4 4 7 3 -10 7 -24 2 4 -3 4 -3 5 -2 -1
-4 -3 -2 -1 -2 -0 -2 -3 -1 1 -3 -3 -6 -7 0 -1 -2 -5 -2 -2 -0 -2 -4 4 -3 -2 -7 8 3 -5 -3 6 11 4 -5 -20 -17 -3 5 -6 -2 -1 2 1 0
0 -3 -4 -3 -3 -1 0 -2 -1 2 4 -1 -0 2 5 1 1 2 -2 -0 6 0 0 3 -0 2 -3 3 -4 1 -1 -0 -0 2 10 -13 -13 6 4 -1 1 0 -1 1 2
-2 0 -1 -2 1 2 -2 -4 2 -4 5 -3 -1 2 3 -1 -4 -6 6 6 -2 3 4 4 -2 4 2 -4 -6 -1 -2 3 2 7 1 5 -14 7 3 4 1 -0 -1 1 -1
-1 -2 -1 -2 -1 3 -0 -1 -3 2 -9 -0 -6 -4 -3 -7 -5 -2 -3 -2 7 4 4 4 -1 0 -3 0 -7 -8 3 5 3 3 3 1 0 0 4 6 -5 5 3 0 -2
Height
3163 3160 3156 3152 3149 3146 3142 3140 3137 3134 3132 3130 3129 3127 3126 3124 3121 3120 3119 3118 3115 3113 3111 3109 3109 3108 3107 3107 3106 3106 3108 3107 3108 3109 3109 3109 3108 3108 3107 3107 3107 3108 3107 3106 3105
3162 3159 3156 3152 3148 3144 3140 3136 3133 3131 3129 3128 3126 3125 3124 3123 3122 3119 3118 3116 3114 3113 3112 3110 3109 3109 3108 3107 3106 3106 3107 3107 3108 3109 3108 3107 3106 3105 3105 3104 3105 3105 3104 3102 3102
3162 3159 3155 3151 3147 3141 3136 3132 3129 3127 3125 3125 3124 3123 3123 3122 3121 3120 3119 3116 3114 3113 3111 3110 3110 3109 3108 3107 3107 3106 3107 3107 3107 3107 3106 3105 3104 3103 3102 3102 3102 3103 3103 3102 3102
3161 3158 3154 3149 3144 3139 3134 3130 3127 3124 3122 3122 3122 3121 3121 3121 3122 3119 3118 3116 3115 3114 3113 3110 3109 3109 3108 3107 3107 3107 3107 3107 3107 3107 3106 3104 3102 3101 3100 3100 3100 3100 3100 3100 3099
3160 3156 3153 3148 3142 3137 3132 3129 3125 3123 3120 3120 3120 3120 3120 3120 3119 3117 3117 3116 3114 3114 3112 3111 3109 3108 3107 3106 3106 3106 3106 3106 3106 3106 3104 3103 3101 3100 3098 3097 3097 3097 3097 3097 3096
3159 3155 3152 3147 3141 3136 3132 3128 3124 3122 3120 3118 3118 3119 3119 3120 3119 3118 3116 3115 3113 3113 3111 3110 3109 3108 3107 3105 3105 3105 3105 3105 3105 3104 3103 3101 3099 3098 3098 3096 3095 3095 3093 3093 3092
3158 3154 3150 3145 3140 3135 3131 3127 3124 3122 3119 3118 3118 3118 3119 3119 3117 3117 3116 3115 3113 3111 3110 3110 3109 3108 3107 3107 3106 3105 3105 3104 3103 3102 3101 3099 3097 3097 3095 3094 3094 3092 3091 3090 3089
3156 3152 3149 3144 3139 3135 3130 3126 3123 3121 3119 3118 3117 3117 3118 3117 3117 3116 3115 3114 3113 3111 3110 3110 3109 3108 3108 3107 3106 3106 3106 3104 3102 3100 3099 3098 3096 3094 3092 3091 3091 3090 3089 3088 3088
3155 3151 3147 3143 3138 3134 3130 3126 3123 3120 3118 3118 3117 3116 3117 3117 3116 3115 3115 3114 3113 3112 3111 3109 3108 3108 3108 3107 3105 3104 3104 3103 3102 3099 3097 3096 3092 3093 3090 3087 3087 3087 3087 3087 3086
3153 3149 3145 3141 3137 3133 3129 3126 3122 3120 3119 3117 3117 3118 3117 3116 3114 3114 3114 3114 3113 3112 3111 3109 3108 3108 3106 3104 3104 3103 3102 3101 3099 3098 3095 3093 3088 3087 3086 3084 3085 3085 3084 3084 3083
3151 3147 3143 3140 3135 3132 3129 3126 3126 3122 3118 3117 3117 3115 3114 3115 3114 3113 3113 3113 3111 3110 3109 3108 3108 3107 3107 3105 3104 3103 3101 3098 3098 3094 3090 3088 3084 3083 3082 3083 3083 3082 3082 3081 3080
3149 3146 3142 3138 3135 3130 3127 3125 3122 3122 3119 3117 3116 3115 3114 3114 3114 3114 3114 3113 3111 3110 3108 3109 3106 3106 3105 3105 3104 3102 3101 3098 3095 3093 3089 3084 3081 3080 3080 3081 3081 3080 3079 3077 3075
3147 3143 3139 3136 3132 3130 3126 3124 3122 3120 3120 3120 3118 3117 3116 3116 3115 3114 3114 3113 3111 3109 3107 3107 3107 3106 3105 3104 3103 3103 3099 3096 3094 3088 3085 3082 3077 3077 3078 3078 3078 3077 3076 3075 3073
3144 3141 3138 3134 3133 3128 3125 3123 3121 3119 3119 3121 3119 3118 3117 3116 3116 3115 3115 3115 3113 3110 3107 3107 3106 3105 3104 3102 3100 3099 3099 3096 3092 3089 3087 3083 3079 3074 3073 3074 3075 3075 3074 3072 3070
3141 3138 3135 3131 3129 3126 3125 3122 3120 3119 3121 3122 3118 3117 3115 3116 3114 3113 3112 3111 3110 3110 3111 3107 3104 3102 3100 3100 3099 3099 3095 3093 3090 3088 3084 3082 3080 3070 3071 3070 3071 3071 3071 3069 3066
3139 3136 3133 3129 3127 3125 3122 3120 3119 3120 3118 3119 3118 3116 3115 3113 3111 3110 3109 3109 3107 3106 3104 3103 3101 3099 3098 3097 3095 3094 3093 3089 3086 3085 3085 3079 3081 3069 3069 3070 3069 3068 3067 3066 3061
3136 3134 3131 3127 3125 3123 3121 3119 3119 3116 3121 3120 3117 3115 3112 3110 3108 3106 3104 3102 3102 3102 3101 3099 3097 3096 3095 3094 3093 3091 3089 3088 3089 3088 3084 3081 3079 3069 3068 3067 3067 3065 3064 3061 3055
3134 3132 3130 3126 3124 3123 3120 3119 3118 3119 3118 3118 3116 3114 3112 3110 3107 3104 3103 3102 3101 3099 3097 3096 3094 3095 3094 3095 3093 3089 3089 3089 3094 3092 3084 3080 3074 3067 3066 3065 3064 3063 3060 3056 3051
3131 3129 3128 3125 3123 3121 3120 3117 3118 3118 3118 3116 3116 3113 3111 3111 3110 3106 3103 3098 3096 3096 3099 3096 3094 3092 3092 3091 3092 3090 3089 3089 3086 3082 3081 3071 3067 3065 3063 3062 3061 3060 3058 3053 3047
3129 3127 3125 3122 3120 3119 3119 3117 3115 3114 3114 3113 3111 3111 3109 3109 3109 3107 3104 3104 3103 3101 3096 3093 3091 3088 3089 3089 3088 3088 3089 3087 3086 3087 3080 3069 3065 3061 3061 3060 3058 3055 3052 3048 3043
3126 3124 3122 3120 3118 3117 3115 3115 3114 3112 3113 3113 3110 3107 3108 3107 3107 3106 3104 3102 3099 3100 3099 3098 3095 3091 3089 3088 3086 3085 3084 3085 3085 3082 3080 3075 3062 3060 3059 3056 3053 3051 3048 3045 3040
3123 3121 3119 3117 3116 3113 3111 3111 3111 3109 3109 3108 3107 3104 3101 3101 3100 3100 3099 3099 3098 3096 3096 3095 3093 3090 3084 3083 3081 3082 3082 3081 3080 3078 3075 3071 3055 3056 3053 3052 3051 3049 3046 3042 3038
3120 3119 3117 3115 3113 3111 3109 3108 3108 3106 3105 3104 3104 3103 3100 3099 3099 3095 3093 3093 3092 3093 3092 3091 3089 3087 3082 3082 3079 3078 3078 3080 3078 3075 3069 3070 3052 3052 3052 3052 3051 3046 3043 3038 3034
3118 3116 3114 3112 3111 3108 3106 3105 3104 3102 3100 3100 3098 3099 3096 3092 3093 3091 3090 3088 3087 3087 3088 3086 3083 3084 3083 3083 3080 3075 3074 3073 3074 3070 3060 3058 3047 3042 3047 3043 3039 3037 3036 3033 3030
3114 3113 3112 3110 3106 3104 3103 3102 3100 3098 3096 3095 3094 3094 3095 3091 3088 3083 3081 3083 3083 3081 3079 3080 3075 3074 3073 3074 3073 3067 3064 3063 3062 3058 3057 3048 3049 3043 3040 3037 3033 3032 3030 3028 3025
3111 3110 3108 3106 3104 3101 3098 3097 3095 3095 3094 3091 3090 3089 3088 3085 3087 3087 3083 3079 3079 3078 3077 3074 3071 3068 3067 3069 3067 3060 3056 3054 3051 3048 3045 3044 3042 3041 3039 3035 3032 3029 3026 3024 3021
3105 3104 3104 3103 3101 3099 3095 3093 3091 3087 3090 3088 3086 3085 3081 3083 3080 3078 3076 3076 3074 3072 3072 3071 3070 3067 3061 3062 3061 3054 3051 3049 3047 3045 3043 3040 3039 3036 3036 3033 3029 3027 3024 3021 3018